This is the latest recevied weather packets stored in our database for station/object K4IR. If no packets are shown the sender has not sent any weather packets the latest 10 day(s).
| Time | Temp. | Humidity | Pressure | Rain* | Wind** | Luminosity | Snow |
|---|---|---|---|---|---|---|---|
| 1777961234 | 11.67° C | 96% | 1017 hPa | 0 mm | - | 0 W/m² | - |
| 1777960632 | 11.67° C | 96% | 1017.1 hPa | 0 mm | - | 0 W/m² | - |
| 1777960032 | 11.67° C | 95% | 1017.3 hPa | 0 mm | - | 0 W/m² | - |
| 1777959428 | 11.67° C | 95% | 1017.4 hPa | 0 mm | - | 0 W/m² | - |
| 1777958827 | 11.67° C | 95% | 1017.6 hPa | 0 mm | - | 0 W/m² | - |
| 1777958227 | 11.67° C | 95% | 1017.6 hPa | 0 mm | - | 0 W/m² | - |
| 1777957623 | 12.22° C | 95% | 1017.7 hPa | 0 mm | - | 0 W/m² | - |
| 1777957021 | 12.78° C | 95% | 1017.7 hPa | 0 mm | - | 0 W/m² | - |
| 1777956416 | 12.22° C | 94% | 1017.7 hPa | 0 mm | - | 0 W/m² | - |
| 1777955815 | 12.22° C | 94% | 1017.9 hPa | 0 mm | - | 0 W/m² | - |
| 1777955214 | 12.22° C | 94% | 1017.5 hPa | 0 mm | - | 0 W/m² | - |
| 1777954608 | 12.22° C | 93% | 1017.8 hPa | 0 mm | - | 0 W/m² | - |
| 1777954008 | 12.22° C | 93% | 1017.5 hPa | 0 mm | - | 0 W/m² | - |
| 1777953408 | 12.22° C | 93% | 1017.5 hPa | 0 mm | - | 0 W/m² | - |
| 1777952806 | 12.78° C | 92% | 1017.4 hPa | 0 mm | - | 0 W/m² | - |
| 1777952206 | 13.33° C | 92% | 1017.6 hPa | 0 mm | - | 0 W/m² | - |
| 1777951602 | 13.33° C | 91% | 1017.6 hPa | 0 mm | - | 0 W/m² | - |
| 1777951002 | 13.33° C | 91% | 1017.7 hPa | 0 mm | - | 0 W/m² | - |
| 1777950400 | 13.33° C | 91% | 1017.7 hPa | 0 mm | - | 0 W/m² | - |
| 1777949797 | 13.33° C | 90% | 1017.7 hPa | 0 mm | - | 0 W/m² | - |
| 1777949193 | 13.89° C | 90% | 1017.8 hPa | 0 mm | - | 0 W/m² | - |
| 1777948593 | 13.33° C | 89% | 1017.9 hPa | 0 mm | - | 0 W/m² | - |
| 1777947988 | 13.33° C | 89% | 1017.7 hPa | 0 mm | - | 0 W/m² | - |
| 1777947387 | 13.33° C | 89% | 1017.7 hPa | 0 mm | - | 0 W/m² | - |
| 1777946786 | 13.33° C | 88% | 1017.8 hPa | 0 mm | - | 0 W/m² | - |
* Rain latest hour (hover to see other rain measurements)
** Current wind speed in m/s (hover to see current wind gust speed)